Location: Buchberg
(46.9333°N, 15.8500°E)
Time: 08:39:14
(UTC+00:00)

Cosmos 1725 Rocket - Pass Details

Date: 14 July 2020
Orbit: 963 x 989 km, 82.9° (Epoch: 07 August)

Event Time Altitude Azimuth Distance (km) Brightness Sun altitude
Exits shadow 01:21:05 21° 204° (SSW) 2,047 5.1 -14.7°
Maximum altitude 01:25:23 64° 282° (WNW) 1,071 4.1 -14.2°
Drops below altitude 10° 01:31:37 10° 4° (N) 2,737 7.3 -13.6°
Sets 01:34:11 0° 7° (N) 3,693 8.2 -13.4°
